timestamp,wind_dir_avg,wind_spd_avg,wind_spd_max_dir,wind_spd_gust,battery_voltage,lat,long
2023-08-23 00:04:00+00:00,221.0,4.2,226.0,4.76,12.49,47.59359,-54.27349
2023-08-23 00:14:01+00:00,222.0,3.63,222.0,4.22,12.41,47.59359,-54.27349
2023-08-23 00:24:01+00:00,215.0,3.61,216.0,4.19,12.41,47.59359,-54.27349
2023-08-23 00:34:01+00:00,219.0,3.2,218.0,3.54,12.41,47.59359,-54.27349
2023-08-23 00:44:01+00:00,227.0,2.66,222.0,2.94,12.41,47.59359,-54.27349
2023-08-23 00:54:01+00:00,224.0,3.18,224.0,3.6,12.41,47.59359,-54.27349
2023-08-23 01:04:01+00:00,213.0,3.37,215.0,3.71,12.41,47.59359,-54.27349
2023-08-23 01:14:01+00:00,211.0,3.38,213.0,3.7,12.41,47.59359,-54.27349
2023-08-23 01:24:01+00:00,211.0,3.77,210.0,4.25,12.41,47.59359,-54.27349
2023-08-23 01:34:01+00:00,220.0,3.42,219.0,3.88,12.41,47.59359,-54.27349
2023-08-23 01:44:01+00:00,221.0,3.55,219.0,3.92,12.41,47.59359,-54.27349
2023-08-23 01:54:01+00:00,209.0,3.5,208.0,3.95,12.41,47.59359,-54.27349
2023-08-23 02:04:01+00:00,218.0,4.01,218.0,4.25,12.41,47.59359,-54.27349
2023-08-23 02:14:01+00:00,234.0,2.87,238.0,3.35,12.41,47.59359,-54.27349
2023-08-23 02:24:01+00:00,236.0,2.97,237.0,3.27,12.41,47.59359,-54.27349
2023-08-23 02:34:01+00:00,244.0,2.1,245.0,2.25,12.41,47.59359,-54.27349
2023-08-23 02:44:01+00:00,221.0,2.22,224.0,2.4,12.41,47.59359,-54.27349
2023-08-23 02:54:01+00:00,233.0,2.09,237.0,2.28,12.41,47.59359,-54.27349
2023-08-23 03:04:01+00:00,236.0,2.17,230.0,2.38,12.41,47.59359,-54.27349
2023-08-23 03:14:01+00:00,235.0,2.44,235.0,2.74,12.41,47.59359,-54.27349
2023-08-23 03:24:01+00:00,227.0,2.3,224.0,2.57,12.41,47.59359,-54.27349
2023-08-23 03:34:01+00:00,242.0,1.82,244.0,1.94,12.41,47.59359,-54.27349
2023-08-23 03:44:01+00:00,249.0,1.87,245.0,2.1,12.41,47.59359,-54.27349
2023-08-23 03:54:01+00:00,243.0,1.84,246.0,2.05,12.41,47.59359,-54.27349
2023-08-23 04:04:01+00:00,244.0,2.49,243.0,2.75,12.41,47.59359,-54.27349
2023-08-23 04:14:01+00:00,231.0,2.27,229.0,2.56,12.41,47.59359,-54.27349
2023-08-23 04:24:01+00:00,227.0,2.13,227.0,2.39,12.41,47.59359,-54.27349
2023-08-23 04:34:01+00:00,210.0,1.62,212.0,1.87,12.41,47.59359,-54.27349
2023-08-23 04:44:01+00:00,227.0,1.76,227.0,2.22,12.41,47.59359,-54.27349
2023-08-23 04:54:01+00:00,232.0,1.1,232.0,1.31,12.41,47.59359,-54.27349
2023-08-23 05:04:01+00:00,238.0,1.35,238.0,1.54,12.41,47.59359,-54.27349
2023-08-23 05:14:00+00:00,277.0,1.47,279.0,1.68,12.33,47.59359,-54.27349
2023-08-23 05:24:00+00:00,266.0,1.32,271.0,1.57,12.33,47.59359,-54.27349
2023-08-23 05:34:00+00:00,269.0,1.7,271.0,2.11,12.33,47.59359,-54.27349
2023-08-23 05:44:00+00:00,271.0,1.5,275.0,1.62,12.33,47.59359,-54.27349
2023-08-23 05:54:00+00:00,263.0,1.26,266.0,1.48,12.33,47.59359,-54.27349
2023-08-23 06:04:00+00:00,251.0,1.61,249.0,1.79,12.33,47.59359,-54.27349
2023-08-23 06:14:00+00:00,252.0,1.88,254.0,2.09,12.41,47.59359,-54.27349
2023-08-23 06:24:00+00:00,258.0,1.76,255.0,1.96,12.41,47.59359,-54.27349
2023-08-23 06:34:00+00:00,254.0,1.57,252.0,1.89,12.41,47.59359,-54.27349
2023-08-23 06:44:00+00:00,253.0,1.77,257.0,1.97,12.41,47.59359,-54.27349
2023-08-23 06:54:00+00:00,246.0,1.94,250.0,2.24,12.41,47.59359,-54.27349
2023-08-23 07:04:00+00:00,214.0,1.85,215.0,2.12,12.41,47.59359,-54.27349
2023-08-23 07:14:00+00:00,213.0,1.09,210.0,1.21,12.33,47.59359,-54.27349
2023-08-23 07:24:00+00:00,298.0,1.34,306.0,1.71,12.33,47.59359,-54.27349
2023-08-23 07:34:00+00:00,228.0,0.63,222.0,0.74,12.33,47.59359,-54.27349
2023-08-23 07:44:00+00:00,291.0,1.02,292.0,1.16,12.33,47.59359,-54.27349
2023-08-23 07:54:00+00:00,348.0,0.86,347.0,0.96,12.33,47.59359,-54.27349
2023-08-23 08:04:00+00:00,332.0,1.29,329.0,1.49,12.33,47.59359,-54.27349
2023-08-23 08:14:00+00:00,359.0,1.36,357.0,1.52,12.33,47.59359,-54.27349
2023-08-23 08:24:00+00:00,342.0,1.23,338.0,1.37,12.33,47.59359,-54.27349
2023-08-23 08:34:00+00:00,331.0,1.47,337.0,1.59,12.33,47.59359,-54.27349
2023-08-23 08:44:00+00:00,336.0,1.04,342.0,1.18,12.33,47.59359,-54.27349
2023-08-23 08:54:00+00:00,319.0,0.98,317.0,1.21,12.33,47.59359,-54.27349
2023-08-23 09:04:00+00:00,316.0,2.59,318.0,2.82,12.33,47.59359,-54.27349
2023-08-23 09:14:00+00:00,342.0,1.5,340.0,1.71,12.25,47.59359,-54.27349
2023-08-23 09:24:00+00:00,339.0,2.37,338.0,2.6,12.25,47.59359,-54.27349
2023-08-23 09:34:00+00:00,347.0,2.5,350.0,2.79,12.25,47.59359,-54.27349
2023-08-23 09:44:00+00:00,334.0,3.35,334.0,3.63,12.25,47.59359,-54.27349
2023-08-23 09:54:00+00:00,340.0,1.73,333.0,2.06,12.25,47.59359,-54.27349
2023-08-23 10:04:00+00:00,34.0,1.81,36.0,2.12,12.25,47.59359,-54.27349
2023-08-23 10:14:00+00:00,1.0,3.41,0.0,3.82,12.41,47.59359,-54.27349
2023-08-23 10:24:00+00:00,9.0,2.45,10.0,2.92,12.41,47.59359,-54.27349
2023-08-23 10:34:00+00:00,4.0,2.49,2.0,2.92,12.41,47.59359,-54.27349
2023-08-23 10:44:00+00:00,2.0,2.19,6.0,2.55,12.41,47.59359,-54.27349
2023-08-23 10:54:00+00:00,19.0,1.83,14.0,2.07,12.41,47.59359,-54.27349
2023-08-23 11:04:00+00:00,21.0,1.97,17.0,2.36,12.41,47.59359,-54.27349
2023-08-23 11:14:00+00:00,18.0,2.18,19.0,2.79,12.97,47.59359,-54.27349
2023-08-23 11:24:00+00:00,8.0,2.29,6.0,2.67,12.97,47.59359,-54.27349
2023-08-23 11:34:00+00:00,338.0,3.33,340.0,3.68,12.97,47.59359,-54.27349
2023-08-23 11:44:00+00:00,343.0,3.11,345.0,3.56,12.97,47.59359,-54.27349
2023-08-23 11:54:00+00:00,356.0,2.42,358.0,2.62,12.97,47.59359,-54.27349
2023-08-23 12:04:00+00:00,6.0,1.72,9.0,1.93,12.97,47.59359,-54.27349
2023-08-23 12:14:00+00:00,350.0,2.0,351.0,2.17,13.37,47.59359,-54.27349
2023-08-23 12:24:00+00:00,30.0,1.77,31.0,2.24,13.37,47.59359,-54.27349
2023-08-23 12:34:00+00:00,32.0,1.6,33.0,1.95,13.37,47.59359,-54.27349
2023-08-23 12:44:00+00:00,23.0,1.67,21.0,1.96,13.37,47.59359,-54.27349
2023-08-23 12:54:00+00:00,44.0,2.16,42.0,2.54,13.37,47.59359,-54.27349
2023-08-23 13:04:00+00:00,33.0,3.26,33.0,3.65,13.37,47.59359,-54.27349
2023-08-23 13:14:01+00:00,40.0,4.01,35.0,4.84,13.6,47.59359,-54.27349
2023-08-23 13:24:01+00:00,39.0,4.22,37.0,4.57,13.6,47.59359,-54.27349
2023-08-23 13:34:01+00:00,47.0,4.2,40.0,4.69,13.6,47.59359,-54.27349
2023-08-23 13:44:01+00:00,43.0,3.98,42.0,4.39,13.6,47.59359,-54.27349
2023-08-23 13:54:01+00:00,54.0,3.67,60.0,4.18,13.6,47.59359,-54.27349
2023-08-23 14:04:01+00:00,55.0,3.75,55.0,4.04,13.6,47.59359,-54.27349
2023-08-23 14:14:00+00:00,46.0,3.91,45.0,4.23,13.68,47.59359,-54.27349
2023-08-23 14:24:00+00:00,42.0,3.89,43.0,4.19,13.68,47.59359,-54.27349
2023-08-23 14:34:00+00:00,36.0,3.34,34.0,3.67,13.68,47.59359,-54.27349
2023-08-23 14:44:00+00:00,39.0,3.79,35.0,4.19,13.68,47.59359,-54.27349
2023-08-23 14:54:00+00:00,47.0,3.06,48.0,3.37,13.68,47.59359,-54.27349
2023-08-23 15:04:00+00:00,57.0,3.24,57.0,3.39,13.68,47.59359,-54.27349
2023-08-23 15:14:01+00:00,56.0,3.37,56.0,3.52,13.68,47.59359,-54.27349
2023-08-23 15:24:01+00:00,50.0,3.64,47.0,4.14,13.68,47.59359,-54.27349
2023-08-23 15:34:01+00:00,54.0,3.89,52.0,4.36,13.68,47.59359,-54.27349
2023-08-23 15:44:01+00:00,59.0,3.2,58.0,3.76,13.68,47.59359,-54.27349
2023-08-23 15:54:01+00:00,54.0,3.25,51.0,3.55,13.68,47.59359,-54.27349
2023-08-23 16:04:01+00:00,56.0,3.56,58.0,3.86,13.68,47.59359,-54.27349
2023-08-23 16:14:01+00:00,52.0,3.35,56.0,3.54,13.84,47.59359,-54.27349
2023-08-23 16:24:01+00:00,54.0,3.22,54.0,3.59,13.84,47.59359,-54.27349
2023-08-23 16:34:01+00:00,45.0,2.96,41.0,3.21,13.84,47.59359,-54.27349
2023-08-23 16:44:01+00:00,50.0,2.32,49.0,2.7,13.84,47.59359,-54.27349
2023-08-23 16:54:01+00:00,45.0,2.39,48.0,2.63,13.84,47.59359,-54.27349
2023-08-23 17:04:01+00:00,51.0,2.89,51.0,3.3,13.84,47.59359,-54.27349
2023-08-23 17:14:00+00:00,45.0,2.89,45.0,3.19,14.32,47.59359,-54.27349
2023-08-23 17:24:00+00:00,122.0,2.32,120.0,2.98,14.32,47.59359,-54.27349
2023-08-23 17:34:00+00:00,148.0,2.03,150.0,2.28,14.32,47.59359,-54.27349
2023-08-23 17:44:00+00:00,151.0,1.9,153.0,2.06,14.32,47.59359,-54.27349
2023-08-23 17:54:00+00:00,132.0,1.61,133.0,1.94,14.32,47.59359,-54.27349
2023-08-23 18:04:00+00:00,145.0,0.4,157.0,0.67,14.32,47.59359,-54.27349
2023-08-23 18:14:01+00:00,10.0,0.85,8.0,1.09,13.68,47.59359,-54.27349
2023-08-23 18:24:01+00:00,26.0,2.11,27.0,2.41,13.68,47.59359,-54.27349
2023-08-23 18:34:01+00:00,21.0,1.81,23.0,2.03,13.68,47.59359,-54.27349
2023-08-23 18:44:01+00:00,15.0,3.19,17.0,3.41,13.68,47.59359,-54.27349
2023-08-23 18:54:01+00:00,7.0,3.25,8.0,3.77,13.68,47.59359,-54.27349
2023-08-23 19:04:01+00:00,37.0,4.76,42.0,5.82,13.68,47.59359,-54.27349
2023-08-23 19:14:00+00:00,43.0,6.67,43.0,7.65,13.68,47.59359,-54.27349
2023-08-23 19:24:00+00:00,55.0,6.83,53.0,7.85,13.68,47.59359,-54.27349
2023-08-23 19:34:00+00:00,72.0,5.44,72.0,6.21,13.68,47.59359,-54.27349
2023-08-23 19:44:00+00:00,60.0,4.45,59.0,4.91,13.68,47.59359,-54.27349
2023-08-23 19:54:00+00:00,60.0,3.25,60.0,3.53,13.68,47.59359,-54.27349
2023-08-23 20:04:00+00:00,63.0,2.63,66.0,3.23,13.68,47.59359,-54.27349
2023-08-23 20:14:01+00:00,51.0,2.1,48.0,2.45,13.68,47.59359,-54.27349
2023-08-23 20:24:01+00:00,44.0,3.04,46.0,3.34,13.68,47.59359,-54.27349
2023-08-23 20:34:01+00:00,74.0,3.34,71.0,4.02,13.68,47.59359,-54.27349
2023-08-23 20:44:01+00:00,70.0,2.1,57.0,3.21,13.68,47.59359,-54.27349
2023-08-23 20:54:01+00:00,91.0,2.31,92.0,3.63,13.68,47.59359,-54.27349
2023-08-23 21:04:01+00:00,106.0,2.0,92.0,3.29,13.68,47.59359,-54.27349
2023-08-23 21:14:01+00:00,103.0,1.54,72.0,2.43,13.44,47.59359,-54.27349
2023-08-23 21:24:01+00:00,102.0,1.23,92.0,1.95,13.44,47.59359,-54.27349
2023-08-23 21:34:01+00:00,71.0,1.76,80.0,3.01,13.44,47.59359,-54.27349
2023-08-23 21:44:01+00:00,95.0,1.84,79.0,3.29,13.44,47.59359,-54.27349
2023-08-23 21:54:01+00:00,76.0,1.97,94.0,3.11,13.44,47.59359,-54.27349
2023-08-23 22:04:01+00:00,127.0,2.17,134.0,3.02,13.44,47.59359,-54.27349
2023-08-23 22:14:00+00:00,99.0,2.32,111.0,3.31,13.13,47.59359,-54.27349
2023-08-23 22:24:00+00:00,76.0,2.76,72.0,4.12,13.13,47.59359,-54.27349
2023-08-23 22:34:00+00:00,86.0,2.07,84.0,3.32,13.13,47.59359,-54.27349
2023-08-23 22:44:00+00:00,119.0,2.4,121.0,3.18,13.13,47.59359,-54.27349
2023-08-23 22:54:00+00:00,109.0,1.41,115.0,2.63,13.13,47.59359,-54.27349
2023-08-23 23:04:00+00:00,98.0,2.21,92.0,3.25,13.13,47.59359,-54.27349
2023-08-23 23:14:00+00:00,128.0,3.22,130.0,4.09,12.57,47.59359,-54.27349
2023-08-23 23:24:00+00:00,151.0,3.53,160.0,3.95,12.57,47.59359,-54.27349
2023-08-23 23:34:00+00:00,155.0,3.47,156.0,4.28,12.57,47.59359,-54.27349
2023-08-23 23:44:00+00:00,141.0,2.97,140.0,3.44,12.57,47.59359,-54.27349
2023-08-23 23:54:00+00:00,122.0,2.4,136.0,2.87,12.57,47.59359,-54.27349
